{"data":{"norad_id":51106,"intl_designator":"2022-005C","name":"STARLINK-3176","alt_names":[],"object_type":"PAYLOAD","status":"ACTIVE","operator":null,"country":"US","launch_date":"2022-01-19","launch_site_code":"AFETR","launch_vehicle":null,"mission":null,"orbit_class":"UNKNOWN","rcs_meters":null,"size_class":null,"mass_kg":null,"dimensions":null,"purposes":["comms"],"wikipedia_slug":null,"has_3d_model":false,"image_url":null,"decayed_at":null,"tle_current":{"epoch":"2026-05-24T20:49:35.061024Z","epoch_age_seconds":87299,"freshness":"FRESH","line1":"1 51106U 22005C   26144.86776691  .00000424  00000+0  44721-4 0  9990","line2":"2 51106  53.2146 307.1424 0001593  87.9034 272.2141 15.08836135240371","mean_motion":15.08836135,"eccentricity":0.0001593,"inclination_deg":53.2146,"raan_deg":307.1424,"arg_perigee_deg":87.9034,"mean_anomaly_deg":272.2141,"bstar":4.4721e-5,"rev_number":24037,"period_min":95.437799148414,"perigee_km":538.65318252021,"apogee_km":540.857222976,"semimajor_km":6917.8922027481,"source":"CELESTRAK","updated_at":"2026-05-25T13:38:16.884697Z"}}}